"Period start","avg(HW err(1)/warn(2) (#))","avg(Visibility (m))","avg(Weather code (#))","avg(Precip intensity (mm/h))","min(HW err(1)/warn(2) (#))","max(HW err(1)/warn(2) (#))","std(HW err(1)/warn(2) (#))","med(HW err(1)/warn(2) (#))","min(Visibility (m))","max(Visibility (m))","std(Visibility (m))","med(Visibility (m))","min(Weather code (#))","max(Weather code (#))","std(Weather code (#))","med(Weather code (#))","min(Precip intensity (mm/h))","max(Precip intensity (mm/h))","std(Precip intensity (mm/h))","med(Precip intensity (mm/h))"
2016-08-31 00:00:00,0,49976,0,0.00,0,0,0,0,49759,50000,72,50000,0,0,0,0,0.00,0.00,0.00,0.00
2016-08-31 00:10:00,0,50000,0,0.00,0,0,0,0,50000,50000,0,50000,0,0,0,0,0.00,0.00,0.00,0.00
2016-08-31 00:20:00,0,50000,0,0.00,0,0,0,0,50000,50000,0,50000,0,0,0,0,0.00,0.00,0.00,0.00
2016-08-31 00:30:00,0,50000,0,0.00,0,0,0,0,50000,50000,0,50000,0,0,0,0,0.00,0.00,0.00,0.00
2016-08-31 00:40:00,0,49648,0,0.00,0,0,0,0,46484,50000,1055,50000,0,0,0,0,0.00,0.00,0.00,0.00
2016-08-31 00:50:00,0,50000,0,0.00,0,0,0,0,50000,50000,0,50000,0,0,0,0,0.00,0.00,0.00,0.00
2016-08-31 01:00:00,0,50000,0,0.00,0,0,0,0,50000,50000,0,50000,0,0,0,0,0.00,0.00,0.00,0.00
2016-08-31 01:10:00,0,50000,0,0.00,0,0,0,0,50000,50000,0,50000,0,0,0,0,0.00,0.00,0.00,0.00
2016-08-31 01:20:00,0,50000,0,0.00,0,0,0,0,50000,50000,0,50000,0,0,0,0,0.00,0.00,0.00,0.00
2016-08-31 01:30:00,0,47202,30,0.44,0,0,0,0,34781,50000,4845,50000,0,61,30,30,0.00,2.70,0.81,0.07
2016-08-31 01:40:00,0,46889,53,0.45,0,0,0,0,36947,50000,4123,49446,51,61,4,52,0.00,1.65,0.46,0.33
2016-08-31 01:50:00,0,24278,57,1.60,0,0,0,0,15987,38750,7596,23367,51,61,5,61,0.20,6.10,1.80,0.75
2016-08-31 02:00:00,0,30706,52,1.74,0,0,0,0,18071,50000,10169,26510,52,52,0,52,0.25,4.60,1.35,1.33
2016-08-31 02:10:00,0,23568,61,5.21,0,0,0,0,11976,39608,9428,20824,61,62,0,61,0.10,14.60,4.66,4.15
2016-08-31 02:20:00,0,49590,12,0.00,0,0,0,0,45904,50000,1229,50000,0,61,24,0,0.00,0.00,0.00,0.00
2016-08-31 02:30:00,0,49591,0,0.00,0,0,0,0,47528,50000,840,50000,0,0,0,0,0.00,0.00,0.00,0.00
2016-08-31 02:40:00,0,50000,0,0.00,0,0,0,0,50000,50000,0,50000,0,0,0,0,0.00,0.00,0.00,0.00
2016-08-31 02:50:00,0,49504,0,0.00,0,0,0,0,47319,50000,857,50000,0,0,0,0,0.00,0.00,0.00,0.00
2016-08-31 03:00:00,0,39275,31,2.84,0,0,0,0,11737,50000,16134,50000,0,62,31,30,0.00,10.10,3.87,0.25
2016-08-31 03:10:00,0,33023,30,2.03,0,0,0,0,12486,50000,15814,35310,0,61,30,30,0.00,8.35,2.98,0.07
2016-08-31 03:20:00,0,29810,33,0.18,0,0,0,0,11291,50000,16525,21920,0,61,27,51,0.00,0.65,0.22,0.05
2016-08-31 03:30:00,0,20412,52,1.17,0,0,0,0,8656,36820,10307,16638,51,52,0,52,0.00,5.35,1.55,0.60
2016-08-31 03:40:00,0,48031,10,0.00,0,0,0,0,34347,50000,4670,50000,0,51,20,0,0.00,0.00,0.00,0.00
2016-08-31 03:50:00,0,45819,0,0.00,0,0,0,0,30549,50000,6406,49989,0,0,0,0,0.00,0.00,0.00,0.00
2016-08-31 04:00:00,0,22938,61,2.25,0,0,0,0,11130,46753,13157,15664,61,61,0,61,0.00,3.80,1.25,2.58
2016-08-31 04:10:00,0,22052,43,1.44,0,0,0,0,13854,46668,10398,17551,0,61,28,61,0.00,4.55,1.41,1.43
2016-08-31 04:20:00,0,49357,0,0.00,0,0,0,0,45636,50000,1385,50000,0,0,0,0,0.00,0.00,0.00,0.00
2016-08-31 04:30:00,0,49656,0,0.00,0,0,0,0,47547,50000,740,50000,0,0,0,0,0.00,0.00,0.00,0.00
2016-08-31 04:40:00,0,31673,37,1.33,0,0,0,0,10311,49210,14318,36930,0,61,30,61,0.00,4.20,1.60,0.55
2016-08-31 04:50:00,0,10579,57,1.67,0,0,0,0,7970,12862,1382,10732,52,61,4,61,0.85,3.45,0.70,1.55
2016-08-31 05:00:00,0,10712,56,1.88,0,0,0,0,8576,14027,1598,10582,52,61,4,52,1.00,3.05,0.68,1.88
2016-08-31 05:10:00,0,19992,52,1.23,0,0,0,0,11697,25519,3761,20233,52,52,0,52,0.40,2.45,0.64,1.10
2016-08-31 05:20:00,0,43549,50,0.37,0,0,0,0,35510,50000,5310,45043,41,52,4,52,0.00,1.40,0.44,0.23
2016-08-31 05:30:00,0,49233,0,0.00,0,0,0,0,45854,50000,1368,50000,0,0,0,0,0.00,0.00,0.00,0.00
2016-08-31 05:40:00,0,50000,0,0.00,0,0,0,0,50000,50000,0,50000,0,0,0,0,0.00,0.00,0.00,0.00
2016-08-31 05:50:00,0,49728,0,0.00,0,0,0,0,47283,50000,815,50000,0,0,0,0,0.00,0.00,0.00,0.00
2016-08-31 06:00:00,0,49362,0,0.00,0,0,0,0,45936,50000,1334,50000,0,0,0,0,0.00,0.00,0.00,0.00
2016-08-31 06:10:00,0,50000,0,0.00,0,0,0,0,50000,50000,0,50000,0,0,0,0,0.00,0.00,0.00,0.00
2016-08-31 06:20:00,0,48654,0,0.00,0,0,0,0,39049,50000,3267,50000,0,0,0,0,0.00,0.00,0.00,0.00
2016-08-31 06:30:00,0,49578,0,0.00,0,0,0,0,46461,50000,1059,50000,0,0,0,0,0.00,0.00,0.00,0.00
2016-08-31 06:40:00,0,50000,0,0.00,0,0,0,0,50000,50000,0,50000,0,0,0,0,0.00,0.00,0.00,0.00
2016-08-31 06:50:00,0,50000,0,0.00,0,0,0,0,50000,50000,0,50000,0,0,0,0,0.00,0.00,0.00,0.00
2016-08-31 07:00:00,0,49975,0,0.00,0,0,0,0,49750,50000,75,50000,0,0,0,0,0.00,0.00,0.00,0.00
2016-08-31 07:10:00,0,49215,0,0.00,0,0,0,0,45381,50000,1385,50000,0,0,0,0,0.00,0.00,0.00,0.00
2016-08-31 07:20:00,0,49540,0,0.00,0,0,0,0,46149,50000,1152,50000,0,0,0,0,0.00,0.00,0.00,0.00
2016-08-31 07:30:00,0,49405,0,0.00,0,0,0,0,47568,50000,939,50000,0,0,0,0,0.00,0.00,0.00,0.00
2016-08-31 07:40:00,0,49857,0,0.00,0,0,0,0,48566,50000,430,50000,0,0,0,0,0.00,0.00,0.00,0.00
2016-08-31 07:50:00,0,49798,0,0.00,0,0,0,0,48647,50000,432,50000,0,0,0,0,0.00,0.00,0.00,0.00
2016-08-31 08:00:00,0,49907,0,0.00,0,0,0,0,49150,50000,253,50000,0,0,0,0,0.00,0.00,0.00,0.00
2016-08-31 08:10:00,0,50000,0,0.00,0,0,0,0,50000,50000,0,50000,0,0,0,0,0.00,0.00,0.00,0.00
2016-08-31 08:20:00,0,50000,0,0.00,0,0,0,0,50000,50000,0,50000,0,0,0,0,0.00,0.00,0.00,0.00
2016-08-31 08:30:00,0,50000,0,0.00,0,0,0,0,50000,50000,0,50000,0,0,0,0,0.00,0.00,0.00,0.00
2016-08-31 08:40:00,0,50000,0,0.00,0,0,0,0,50000,50000,0,50000,0,0,0,0,0.00,0.00,0.00,0.00
2016-08-31 08:50:00,0,50000,0,0.00,0,0,0,0,50000,50000,0,50000,0,0,0,0,0.00,0.00,0.00,0.00
2016-08-31 09:00:00,0,50000,0,0.00,0,0,0,0,50000,50000,0,50000,0,0,0,0,0.00,0.00,0.00,0.00
2016-08-31 09:10:00,0,48577,0,0.00,0,0,0,0,42954,50000,2589,50000,0,0,0,0,0.00,0.00,0.00,0.00
2016-08-31 09:20:00,0,50000,0,0.00,0,0,0,0,50000,50000,0,50000,0,0,0,0,0.00,0.00,0.00,0.00
2016-08-31 09:30:00,0,49987,0,0.00,0,0,0,0,49866,50000,40,50000,0,0,0,0,0.00,0.00,0.00,0.00
2016-08-31 09:40:00,0,49996,0,0.00,0,0,0,0,49959,50000,12,50000,0,0,0,0,0.00,0.00,0.00,0.00
2016-08-31 09:50:00,0,50000,0,0.00,0,0,0,0,50000,50000,0,50000,0,0,0,0,0.00,0.00,0.00,0.00
2016-08-31 10:00:00,0,50000,0,0.00,0,0,0,0,50000,50000,0,50000,0,0,0,0,0.00,0.00,0.00,0.00
2016-08-31 10:10:00,0,50000,0,0.00,0,0,0,0,50000,50000,0,50000,0,0,0,0,0.00,0.00,0.00,0.00
2016-08-31 10:20:00,0,50000,0,0.00,0,0,0,0,50000,50000,0,50000,0,0,0,0,0.00,0.00,0.00,0.00
2016-08-31 10:30:00,0,50000,0,0.00,0,0,0,0,50000,50000,0,50000,0,0,0,0,0.00,0.00,0.00,0.00
2016-08-31 10:40:00,0,50000,0,0.00,0,0,0,0,50000,50000,0,50000,0,0,0,0,0.00,0.00,0.00,0.00
2016-08-31 10:50:00,0,50000,0,0.00,0,0,0,0,50000,50000,0,50000,0,0,0,0,0.00,0.00,0.00,0.00
2016-08-31 11:00:00,0,50000,0,0.00,0,0,0,0,50000,50000,0,50000,0,0,0,0,0.00,0.00,0.00,0.00
2016-08-31 11:10:00,0,50000,0,0.00,0,0,0,0,50000,50000,0,50000,0,0,0,0,0.00,0.00,0.00,0.00
2016-08-31 11:20:00,0,50000,0,0.00,0,0,0,0,50000,50000,0,50000,0,0,0,0,0.00,0.00,0.00,0.00
2016-08-31 11:30:00,0,50000,0,0.00,0,0,0,0,50000,50000,0,50000,0,0,0,0,0.00,0.00,0.00,0.00
2016-08-31 11:40:00,0,49909,0,0.00,0,0,0,0,49094,50000,272,50000,0,0,0,0,0.00,0.00,0.00,0.00
2016-08-31 11:50:00,0,50000,0,0.00,0,0,0,0,50000,50000,0,50000,0,0,0,0,0.00,0.00,0.00,0.00
2016-08-31 12:00:00,0,50000,0,0.00,0,0,0,0,50000,50000,0,50000,0,0,0,0,0.00,0.00,0.00,0.00
2016-08-31 12:10:00,0,50000,0,0.00,0,0,0,0,50000,50000,0,50000,0,0,0,0,0.00,0.00,0.00,0.00
2016-08-31 12:20:00,0,50000,0,0.00,0,0,0,0,50000,50000,0,50000,0,0,0,0,0.00,0.00,0.00,0.00
2016-08-31 12:30:00,0,50000,0,0.00,0,0,0,0,50000,50000,0,50000,0,0,0,0,0.00,0.00,0.00,0.00
2016-08-31 12:40:00,0,50000,0,0.00,0,0,0,0,50000,50000,0,50000,0,0,0,0,0.00,0.00,0.00,0.00
2016-08-31 12:50:00,0,50000,0,0.00,0,0,0,0,50000,50000,0,50000,0,0,0,0,0.00,0.00,0.00,0.00
2016-08-31 13:00:00,0,50000,0,0.00,0,0,0,0,50000,50000,0,50000,0,0,0,0,0.00,0.00,0.00,0.00
2016-08-31 13:10:00,0,50000,0,0.00,0,0,0,0,50000,50000,0,50000,0,0,0,0,0.00,0.00,0.00,0.00
2016-08-31 13:20:00,0,50000,0,0.00,0,0,0,0,50000,50000,0,50000,0,0,0,0,0.00,0.00,0.00,0.00
2016-08-31 13:30:00,0,50000,0,0.00,0,0,0,0,50000,50000,0,50000,0,0,0,0,0.00,0.00,0.00,0.00
2016-08-31 13:40:00,0,50000,0,0.00,0,0,0,0,50000,50000,0,50000,0,0,0,0,0.00,0.00,0.00,0.00
2016-08-31 13:50:00,0,50000,0,0.00,0,0,0,0,50000,50000,0,50000,0,0,0,0,0.00,0.00,0.00,0.00
2016-08-31 14:00:00,0,50000,0,0.00,0,0,0,0,50000,50000,0,50000,0,0,0,0,0.00,0.00,0.00,0.00
2016-08-31 14:10:00,0,50000,0,0.00,0,0,0,0,50000,50000,0,50000,0,0,0,0,0.00,0.00,0.00,0.00
2016-08-31 14:20:00,0,50000,0,0.00,0,0,0,0,50000,50000,0,50000,0,0,0,0,0.00,0.00,0.00,0.00
2016-08-31 14:30:00,0,50000,0,0.00,0,0,0,0,50000,50000,0,50000,0,0,0,0,0.00,0.00,0.00,0.00
2016-08-31 14:40:00,0,50000,0,0.00,0,0,0,0,50000,50000,0,50000,0,0,0,0,0.00,0.00,0.00,0.00
2016-08-31 14:50:00,0,49852,0,0.00,0,0,0,0,48524,50000,443,50000,0,0,0,0,0.00,0.00,0.00,0.00
2016-08-31 15:00:00,0,50000,0,0.00,0,0,0,0,50000,50000,0,50000,0,0,0,0,0.00,0.00,0.00,0.00
2016-08-31 15:10:00,0,50000,0,0.00,0,0,0,0,50000,50000,0,50000,0,0,0,0,0.00,0.00,0.00,0.00
2016-08-31 15:20:00,0,50000,0,0.00,0,0,0,0,50000,50000,0,50000,0,0,0,0,0.00,0.00,0.00,0.00
2016-08-31 15:30:00,0,50000,0,0.00,0,0,0,0,50000,50000,0,50000,0,0,0,0,0.00,0.00,0.00,0.00
2016-08-31 15:40:00,0,50000,0,0.00,0,0,0,0,50000,50000,0,50000,0,0,0,0,0.00,0.00,0.00,0.00
2016-08-31 15:50:00,0,50000,0,0.00,0,0,0,0,50000,50000,0,50000,0,0,0,0,0.00,0.00,0.00,0.00
2016-08-31 16:00:00,0,50000,0,0.00,0,0,0,0,50000,50000,0,50000,0,0,0,0,0.00,0.00,0.00,0.00
2016-08-31 16:10:00,0,50000,0,0.00,0,0,0,0,50000,50000,0,50000,0,0,0,0,0.00,0.00,0.00,0.00
2016-08-31 16:20:00,0,50000,0,0.00,0,0,0,0,50000,50000,0,50000,0,0,0,0,0.00,0.00,0.00,0.00
2016-08-31 16:30:00,0,49844,0,0.00,0,0,0,0,48435,50000,470,50000,0,0,0,0,0.00,0.00,0.00,0.00
2016-08-31 16:40:00,0,50000,0,0.00,0,0,0,0,50000,50000,0,50000,0,0,0,0,0.00,0.00,0.00,0.00
2016-08-31 16:50:00,0,50000,0,0.00,0,0,0,0,50000,50000,0,50000,0,0,0,0,0.00,0.00,0.00,0.00
2016-08-31 17:00:00,0,50000,0,0.00,0,0,0,0,50000,50000,0,50000,0,0,0,0,0.00,0.00,0.00,0.00
2016-08-31 17:10:00,0,50000,0,0.00,0,0,0,0,50000,50000,0,50000,0,0,0,0,0.00,0.00,0.00,0.00
2016-08-31 17:20:00,0,50000,0,0.00,0,0,0,0,50000,50000,0,50000,0,0,0,0,0.00,0.00,0.00,0.00
2016-08-31 17:30:00,0,50000,0,0.00,0,0,0,0,50000,50000,0,50000,0,0,0,0,0.00,0.00,0.00,0.00
2016-08-31 17:40:00,0,50000,0,0.00,0,0,0,0,50000,50000,0,50000,0,0,0,0,0.00,0.00,0.00,0.00
2016-08-31 17:50:00,0,50000,0,0.00,0,0,0,0,50000,50000,0,50000,0,0,0,0,0.00,0.00,0.00,0.00
2016-08-31 18:00:00,0,50000,0,0.00,0,0,0,0,50000,50000,0,50000,0,0,0,0,0.00,0.00,0.00,0.00
2016-08-31 18:10:00,0,50000,0,0.00,0,0,0,0,50000,50000,0,50000,0,0,0,0,0.00,0.00,0.00,0.00
2016-08-31 18:20:00,0,44961,0,0.00,0,0,0,0,18614,50000,9905,50000,0,0,0,0,0.00,0.00,0.00,0.00
2016-08-31 18:30:00,0,50000,0,0.00,0,0,0,0,50000,50000,0,50000,0,0,0,0,0.00,0.00,0.00,0.00
2016-08-31 18:40:00,0,43735,0,0.00,0,0,0,0,15893,50000,11186,50000,0,0,0,0,0.00,0.00,0.00,0.00
2016-08-31 18:50:00,0,49904,0,0.00,0,0,0,0,49040,50000,288,50000,0,0,0,0,0.00,0.00,0.00,0.00
2016-08-31 19:00:00,0,50000,0,0.00,0,0,0,0,50000,50000,0,50000,0,0,0,0,0.00,0.00,0.00,0.00
2016-08-31 19:10:00,0,49763,0,0.00,0,0,0,0,48525,50000,492,50000,0,0,0,0,0.00,0.00,0.00,0.00
2016-08-31 19:20:00,0,49664,0,0.00,0,0,0,0,46639,50000,1008,50000,0,0,0,0,0.00,0.00,0.00,0.00
2016-08-31 19:30:00,0,49957,0,0.00,0,0,0,0,49572,50000,128,50000,0,0,0,0,0.00,0.00,0.00,0.00
2016-08-31 19:40:00,0,50000,0,0.00,0,0,0,0,50000,50000,0,50000,0,0,0,0,0.00,0.00,0.00,0.00
2016-08-31 19:50:00,0,50000,0,0.00,0,0,0,0,50000,50000,0,50000,0,0,0,0,0.00,0.00,0.00,0.00
2016-08-31 20:00:00,0,49707,0,0.00,0,0,0,0,48474,50000,586,50000,0,0,0,0,0.00,0.00,0.00,0.00
2016-08-31 20:10:00,0,49986,0,0.00,0,0,0,0,49863,50000,41,50000,0,0,0,0,0.00,0.00,0.00,0.00
2016-08-31 20:20:00,0,47818,0,0.00,0,0,0,0,43239,50000,2492,48730,0,0,0,0,0.00,0.00,0.00,0.00
2016-08-31 20:30:00,0,49607,0,0.00,0,0,0,0,48210,50000,617,50000,0,0,0,0,0.00,0.00,0.00,0.00
2016-08-31 20:40:00,0,50000,0,0.00,0,0,0,0,50000,50000,0,50000,0,0,0,0,0.00,0.00,0.00,0.00
2016-08-31 20:50:00,0,49787,0,0.00,0,0,0,0,48750,50000,434,50000,0,0,0,0,0.00,0.00,0.00,0.00
2016-08-31 21:00:00,0,49763,0,0.00,0,0,0,0,48944,50000,400,50000,0,0,0,0,0.00,0.00,0.00,0.00
2016-08-31 21:10:00,0,48729,0,0.00,0,0,0,0,43142,50000,2151,50000,0,0,0,0,0.00,0.00,0.00,0.00
2016-08-31 21:20:00,0,49271,0,0.00,0,0,0,0,47134,50000,1048,50000,0,0,0,0,0.00,0.00,0.00,0.00
2016-08-31 21:30:00,0,49645,0,0.00,0,0,0,0,48034,50000,610,50000,0,0,0,0,0.00,0.00,0.00,0.00
2016-08-31 21:40:00,0,49529,0,0.00,0,0,0,0,47046,50000,900,50000,0,0,0,0,0.00,0.00,0.00,0.00
2016-08-31 21:50:00,0,48453,0,0.00,0,0,0,0,40947,50000,2772,50000,0,0,0,0,0.00,0.00,0.00,0.00
2016-08-31 22:00:00,0,47455,0,0.00,0,0,0,0,42473,50000,2659,48348,0,0,0,0,0.00,0.00,0.00,0.00
2016-08-31 22:10:00,0,48062,0,0.00,0,0,0,0,42773,50000,2437,49614,0,0,0,0,0.00,0.00,0.00,0.00
2016-08-31 22:20:00,0,45177,0,0.00,0,0,0,0,36399,50000,4420,45914,0,0,0,0,0.00,0.00,0.00,0.00
2016-08-31 22:30:00,0,46471,0,0.00,0,0,0,0,37123,50000,4058,48190,0,0,0,0,0.00,0.00,0.00,0.00
2016-08-31 22:40:00,0,47386,0,0.00,0,0,0,0,40734,50000,3049,48415,0,0,0,0,0.00,0.00,0.00,0.00
2016-08-31 22:50:00,0,43431,0,0.00,0,0,0,0,38562,50000,3882,42313,0,0,0,0,0.00,0.00,0.00,0.00
2016-08-31 23:00:00,0,46039,0,0.00,0,0,0,0,34341,50000,4454,47412,0,0,0,0,0.00,0.00,0.00,0.00
2016-08-31 23:10:00,0,45563,0,0.00,0,0,0,0,36665,50000,5074,48834,0,0,0,0,0.00,0.00,0.00,0.00
2016-08-31 23:20:00,0,41688,0,0.00,0,0,0,0,34141,50000,5323,39400,0,0,0,0,0.00,0.00,0.00,0.00
2016-08-31 23:30:00,0,46024,0,0.00,0,0,0,0,36468,50000,5069,48014,0,0,0,0,0.00,0.00,0.00,0.00
2016-08-31 23:40:00,0,39504,0,0.00,0,0,0,0,27466,50000,7556,36409,0,0,0,0,0.00,0.00,0.00,0.00
2016-08-31 23:50:00,0,44899,0,0.00,0,0,0,0,27504,50000,7254,50000,0,0,0,0,0.00,0.00,0.00,0.00
